| time (UTC) | temp F | wind direction | speed MPH | gust MPH | rain 1hr in | rain 24hr in | rain mn in | humidity % | barometer mb |
| 20260504043043 | 60 | 0 | 0.0 | 0.0 | 0.00 | 0.00 | 0.00 | 63 | 1015.9 |
| 20260504041544 | 60 | 0 | 0.0 | 0.0 | 0.00 | 0.00 | 0.00 | 62 | 1016.0 |
| 20260504040046 | 60 | 0 | 0.0 | 1.0 | 0.00 | 0.00 | 0.00 | 62 | 1016.0 |
| 20260504034553 | 61 | 0 | 0.0 | 0.0 | 0.00 | 0.00 | 0.00 | 61 | 1016.0 |
| 20260504033056 | 61 | 0 | 0.0 | 0.0 | 0.00 | 0.00 | 0.00 | 60 | 1016.1 |
| 20260504031600 | 62 | 0 | 0.0 | 0.0 | 0.00 | 0.00 | 0.00 | 59 | 1016.3 |
| 20260504030109 | 62 | 0 | 0.0 | 0.0 | 0.00 | 0.00 | 0.00 | 57 | 1016.4 |
| 20260504024549 | 63 | 0 | 0.0 | 0.0 | 0.00 | 0.00 | 0.00 | 55 | 1016.2 |
| 20260504023041 | 63 | 0 | 0.0 | 0.0 | 0.00 | 0.00 | 0.00 | 55 | 1016.2 |
| 20260504021548 | 64 | 0 | 0.0 | 0.0 | 0.00 | 0.00 | 0.00 | 52 | 1016.1 |
| 20260504020048 | 65 | 0 | 0.0 | 0.0 | 0.00 | 0.00 | 0.00 | 50 | 1016.1 |
| 20260504014549 | 66 | 0 | 0.0 | 0.0 | 0.00 | 0.00 | 0.00 | 48 | 1016.0 |
| 20260504013044 | 67 | 0 | 0.0 | 0.0 | 0.00 | 0.00 | 0.00 | 47 | 1015.9 |
| 20260504011542 | 68 | 0 | 0.0 | 1.0 | 0.00 | 0.00 | 0.00 | 46 | 1015.7 |
| 20260504010043 | 69 | 0 | 0.0 | 0.0 | 0.00 | 0.00 | 0.00 | 44 | 1015.7 |
| 20260504004541 | 70 | 0 | 0.0 | 1.0 | 0.00 | 0.00 | 0.00 | 43 | 1015.9 |
| 20260504003047 | 71 | 0 | 0.0 | 1.0 | 0.00 | 0.00 | 0.00 | 42 | 1015.7 |
| 20260504001550 | 71 | 0 | 0.0 | 2.0 | 0.00 | 0.00 | 0.00 | 40 | 1015.9 |
| 20260504000113 | 72 | 0 | 0.0 | 3.0 | 0.00 | 0.00 | 0.00 | 40 | 1015.8 |
| 20260503234543 | 73 | 0 | 0.0 | 3.0 | 0.00 | 0.00 | 0.00 | 38 | 1016.0 |
| 20260503233042 | 73 | 0 | 0.0 | 5.0 | 0.00 | 0.00 | 0.00 | 38 | 1016.1 |
| 20260503231541 | 73 | 0 | 0.0 | 7.0 | 0.00 | 0.00 | 0.00 | 38 | 1016.1 |
| 20260503230042 | 73 | 0 | 1.0 | 7.0 | 0.00 | 0.00 | 0.00 | 35 | 1016.1 |
| 20260503224540 | 73 | 0 | 0.0 | 6.0 | 0.00 | 0.00 | 0.00 | 36 | 1016.4 |
| 20260503223045 | 73 | 267 | 1.0 | 5.0 | 0.00 | 0.00 | 0.00 | 35 | 1016.6 |
| 20260503221543 | 73 | 240 | 1.0 | 5.0 | 0.00 | 0.00 | 0.00 | 36 | 1016.8 |
| 20260503220045 | 73 | 0 | 0.0 | 7.0 | 0.00 | 0.00 | 0.00 | 35 | 1016.9 |
| 20260503214540 | 73 | 225 | 1.0 | 10.0 | 0.00 | 0.00 | 0.00 | 36 | 1017.1 |
| 20260503213048 | 73 | 277 | 1.0 | 5.0 | 0.00 | 0.00 | 0.00 | 35 | 1017.3 |
| 20260503211540 | 74 | 237 | 1.0 | 6.0 | 0.00 | 0.00 | 0.00 | 33 | 1017.6 |
| 20260503210047 | 74 | 0 | 1.0 | 9.0 | 0.00 | 0.00 | 0.00 | 33 | 1017.7 |
| 20260503204546 | 74 | 0 | 0.0 | 7.0 | 0.00 | 0.00 | 0.00 | 34 | 1017.9 |
| 20260503203044 | 74 | 0 | 1.0 | 7.0 | 0.00 | 0.00 | 0.00 | 33 | 1018.2 |
| 20260503201542 | 74 | 270 | 2.0 | 7.0 | 0.00 | 0.00 | 0.00 | 34 | 1018.4 |
| 20260503200052 | 74 | 144 | 2.0 | 8.0 | 0.00 | 0.00 | 0.00 | 33 | 1018.8 |
| 20260503194552 | 75 | 169 | 1.0 | 4.0 | 0.00 | 0.00 | 0.00 | 33 | 1019.3 |
| 20260503193046 | 74 | 335 | 1.0 | 4.0 | 0.00 | 0.00 | 0.00 | 35 | 1019.3 |
| 20260503191543 | 74 | 138 | 2.0 | 7.0 | 0.00 | 0.00 | 0.00 | 34 | 1019.6 |
| 20260503190042 | 73 | 0 | 2.0 | 7.0 | 0.00 | 0.00 | 0.00 | 34 | 1019.9 |
| 20260503184558 | 73 | 241 | 2.0 | 7.0 | 0.00 | 0.00 | 0.00 | 33 | 1020.1 |
| 20260503183047 | 73 | 205 | 2.0 | 5.0 | 0.00 | 0.00 | 0.00 | 37 | 1020.3 |
| 20260503181554 | 73 | 300 | 1.0 | 5.0 | 0.00 | 0.00 | 0.00 | 36 | 1020.6 |
| 20260503180040 | 72 | 315 | 1.0 | 8.0 | 0.00 | 0.00 | 0.00 | 37 | 1020.7 |
| 20260503174543 | 71 | 28 | 1.0 | 10.0 | 0.00 | 0.00 | 0.00 | 41 | 1020.9 |
| 20260503173043 | 71 | 0 | 3.0 | 9.0 | 0.00 | 0.00 | 0.00 | 38 | 1021.4 |
| 20260503171604 | 70 | 0 | 1.0 | 8.0 | 0.00 | 0.00 | 0.00 | 40 | 1021.5 |
| 20260503081542 | 47 | 0 | 0.0 | 0.0 | 0.00 | 0.00 | 0.00 | 81 | 1021.3 |
| 20260503071604 | 49 | 0 | 0.0 | 0.0 | 0.00 | 0.00 | 0.00 | 77 | 1021.1 |
| 20260503054557 | 52 | 0 | 0.0 | 0.0 | 0.00 | 0.00 | 0.00 | 70 | 1021.1 |
| 20260503053045 | 53 | 0 | 0.0 | 0.0 | 0.00 | 0.00 | 0.00 | 70 | 1021.0 |
| 20260503051541 | 53 | 0 | 0.0 | 0.0 | 0.00 | 0.00 | 0.00 | 68 | 1020.8 |
| 20260503050046 | 54 | 0 | 0.0 | 0.0 | 0.00 | 0.00 | 0.00 | 67 | 1020.7 |
| 20260503044550 | 54 | 0 | 0.0 | 0.0 | 0.00 | 0.00 | 0.00 | 66 | 1020.6 |